This demonstration page uses our WeatherBlox Daily Observations layout. Learn more.

Left ArrowRight Arrow

41.86663, -103.66717

Hourly Observations for August 6, 2021

Temp ( °F °C ) Dew Point ( °F °C ) Humidity (%) Winds ( mph kmh ) Pressure ( in mb ) Visibility ( mi km ) Precip ( " mm )
12:53 am 00:53 Clear 67 19.4 52 11.1 59 59 E 7 11 29.81 1010 10 16 N/A
1:53 am 01:53 Clear 64 17.8 53 11.7 68 68 E 6 9 29.79 1009 9 14 N/A
2:53 am 02:53 Clear 64 17.8 49 9.4 58 58 NE 7 11 29.77 1008 8 13 N/A
3:53 am 03:53 Clear 60 15.6 50 10 70 70 WSW 7 11 29.78 1008 8 13 N/A
4:53 am 04:53 Clear 57 13.9 51 10.6 81 81 NW 5 7 29.79 1009 7 11 N/A
5:53 am 05:53 Clear 56 13.3 50 10 81 81 WNW 3 6 29.80 1009 7 11 N/A
6:53 am 06:53 Hazy 58 14.4 51 10.6 78 78 NW 10 17 29.84 1011 6 10 N/A
7:53 am 07:53 Sunny 65 18.3 53 11.7 66 66 W 6 9 29.83 1010 7 11 N/A
8:53 am 08:53 Sunny 70 21.1 53 11.7 55 55 W 7 11 29.83 1010 7 11 N/A
9:53 am 09:53 Sunny 78 25.6 53 11.7 42 42 W 13 20 29.81 1010 9 14 N/A
10:53 am 10:53 Sunny 85 29.4 53 11.7 33 33 NW 9 15 29.80 1009 10 16 N/A
11:53 am 11:53 Sunny 89 31.7 55 12.8 31 31 SE 8 13 29.75 1008 9 14 N/A
12:53 pm 12:53 Sunny 85 29.4 55 12.8 36 36 SE 6 9 29.75 1007 9 14 N/A
1:53 pm 13:53 Sunny 90 32.2 54 12.2 29 29 SE 5 7 29.73 1007 9 14 N/A
2:53 pm 14:53 Sunny 90 32.2 57 13.9 33 33 ENE 7 11 29.70 1006 9 14 N/A
3:53 pm 15:53 Mostly Sunny 84 28.9 56 13.3 38 38 NNE 9 15 29.72 1007 8 13 N/A
4:06 pm 16:06 Partly Cloudy with Nearby Thunderstorms 84 28.9 54 12.2 36 36 NNE 7 11 29.57 1001 8 13 N/A
4:27 pm 16:27 Cloudy with Thunderstorms 73 22.8 57 13.9 57 57 SW 14 22 29.69 1006 4 6 0.01 0.25
4:48 pm 16:48 Mostly Cloudy with Nearby Thunderstorms 81 27 55 13 42 42 S 9 15 29.61 1003 10 16 N/A
4:53 pm 16:53 Partly Cloudy with Nearby Thunderstorms 82 27.8 55 12.8 40 40 S 7 11 29.75 1007 10 16 0.01 0.25
5:00 pm 17:00 Mostly Sunny 82 28 54 12 37 37 E 6 9 29.58 1002 10 16 N/A
5:53 pm 17:53 Sunny 79 26.1 59 15 50 50 NE 7 11 29.73 1007 10 16 N/A
6:53 pm 18:53 Sunny 80 26.7 56 13.3 44 44 ENE 5 7 29.74 1007 10 16 N/A
7:53 pm 19:53 Sunny 77 25 57 13.9 50 50 NNE 12 19 29.77 1008 10 16 N/A
8:53 pm 20:53 Clear 72 22.2 55 12.8 55 55 E 14 22 29.78 1009 10 16 N/A
9:53 pm 21:53 Mostly Clear 69 20.6 56 13.3 63 63 ENE 12 19 29.78 1008 10 16 N/A
10:53 pm 22:53 Clear 68 20 56 13.3 65 65 ESE 5 7 29.75 1007 10 16 N/A
11:53 pm 23:53 Clear 66 18.9 56 13.3 70 70 N N/A 29.76 1008 10 16 N/A

Powered by AerisWeather